| time (UTC) | temp C | wind direction | speed KPH | gust KPH | rain 1hr cm | rain 24hr cm | rain mn cm | humidity % | barometer mb |
| 20260503002506 | 9 | 227 | 0.0 | 1.6 | 0.00 | 0.00 | 0.00 | 97 | 1010.2 |
| 20260503002007 | 9 | 227 | 0.0 | 3.2 | 0.00 | 0.00 | 0.00 | 97 | 1010.1 |
| 20260503001526 | 9 | 227 | 0.0 | 3.2 | 0.00 | 0.00 | 0.00 | 97 | 1010.1 |
| 20260503001006 | 9 | 227 | 0.0 | 4.8 | 0.00 | 0.00 | 0.00 | 98 | 1010.1 |
| 20260503000506 | 9 | 227 | 0.0 | 4.8 | 0.00 | 0.00 | 0.00 | 98 | 1010.0 |
| 20260503000035 | 9 | 232 | 0.0 | 6.4 | 0.00 | 0.00 | 0.00 | 98 | 1010.0 |
| 20260503000003 | 9 | 230 | 0.0 | 6.4 | 0.00 | 0.00 | 0.00 | 98 | 1010.7 |
| 20260502235507 | 10 | 232 | 1.6 | 6.4 | 0.00 | 0.00 | 0.00 | 98 | 1010.1 |
| 20260502235008 | 10 | 252 | 1.6 | 6.4 | 0.00 | 0.00 | 0.00 | 98 | 1010.1 |
| 20260502234546 | 10 | 252 | 0.0 | 6.4 | 0.00 | 0.00 | 0.00 | 98 | 1010.1 |
| 20260502234006 | 10 | 245 | 0.0 | 3.2 | 0.00 | 0.00 | 0.00 | 98 | 1010.1 |
| 20260502233509 | 10 | 245 | 0.0 | 4.8 | 0.00 | 0.00 | 0.00 | 98 | 1010.1 |
| 20260502233022 | 10 | 245 | 1.6 | 4.8 | 0.00 | 0.00 | 0.00 | 98 | 1010.0 |
| 20260502232507 | 10 | 224 | 1.6 | 6.4 | 0.00 | 0.00 | 0.00 | 98 | 1009.9 |
| 20260502232008 | 10 | 221 | 0.0 | 6.4 | 0.00 | 0.00 | 0.00 | 98 | 1010.0 |
| 20260502231529 | 10 | 220 | 0.0 | 4.8 | 0.00 | 0.00 | 0.00 | 98 | 1009.9 |
| 20260502231008 | 10 | 207 | 0.0 | 6.4 | 0.00 | 0.00 | 0.00 | 98 | 1010.1 |
| 20260502230507 | 10 | 203 | 3.2 | 6.4 | 0.00 | 0.00 | 0.00 | 98 | 1010.1 |
| 20260502230025 | 10 | 233 | 0.0 | 6.4 | 0.00 | 0.00 | 0.00 | 98 | 1010.1 |
| 20260502230003 | 10 | 232 | 0.0 | 6.4 | 0.00 | 0.00 | 0.00 | 98 | 1010.7 |
| 20260502225508 | 10 | 233 | 1.6 | 6.4 | 0.00 | 0.00 | 0.00 | 98 | 1010.1 |
| 20260502225007 | 10 | 278 | 0.0 | 3.2 | 0.00 | 0.00 | 0.00 | 98 | 1010.1 |
| 20260502224527 | 10 | 278 | 0.0 | 3.2 | 0.00 | 0.00 | 0.00 | 98 | 1010.1 |
| 20260502224008 | 10 | 278 | 0.0 | 4.8 | 0.00 | 0.00 | 0.00 | 98 | 1010.1 |
| 20260502223505 | 10 | 278 | 1.6 | 4.8 | 0.00 | 0.00 | 0.00 | 98 | 1010.1 |
| 20260502223035 | 10 | 219 | 0.0 | 3.2 | 0.00 | 0.00 | 0.00 | 98 | 1010.1 |
| 20260502222508 | 10 | 219 | 0.0 | 3.2 | 0.00 | 0.00 | 0.00 | 98 | 1010.0 |
| 20260502222007 | 10 | 219 | 0.0 | 4.8 | 0.00 | 0.00 | 0.00 | 98 | 1010.0 |
| 20260502221520 | 10 | 217 | 1.6 | 4.8 | 0.00 | 0.00 | 0.00 | 98 | 1010.0 |
| 20260502221013 | 10 | 179 | 0.0 | 4.8 | 0.00 | 0.00 | 0.00 | 98 | 1010.0 |
| 20260502220510 | 10 | 179 | 1.6 | 4.8 | 0.00 | 0.00 | 0.00 | 98 | 1010.0 |
| 20260502220024 | 10 | 181 | 0.0 | 4.8 | 0.00 | 0.00 | 0.00 | 98 | 1010.0 |
| 20260502220010 | 10 | 181 | 0.0 | 4.8 | 0.00 | 0.00 | 0.00 | 99 | 1010.5 |
| 20260502215507 | 10 | 179 | 0.0 | 4.8 | 0.00 | 0.00 | 0.00 | 98 | 1010.1 |
| 20260502215008 | 10 | 180 | 0.0 | 3.2 | 0.00 | 0.00 | 0.00 | 98 | 1010.1 |
| 20260502214519 | 10 | 180 | 0.0 | 3.2 | 0.00 | 0.00 | 0.00 | 98 | 1010.2 |
| 20260502214502 | 10 | 180 | 0.0 | 3.2 | 0.00 | 0.00 | 0.00 | 98 | 1010.6 |
| 20260502214011 | 10 | 179 | 0.0 | 4.8 | 0.00 | 0.00 | 0.00 | 98 | 1010.2 |
| 20260502213508 | 10 | 179 | 1.6 | 4.8 | 0.00 | 0.00 | 0.00 | 98 | 1010.2 |
| 20260502213024 | 9 | 176 | 0.0 | 4.8 | 0.00 | 0.00 | 0.00 | 98 | 1010.1 |
| 20260502212509 | 9 | 176 | 0.0 | 4.8 | 0.00 | 0.00 | 0.00 | 98 | 1010.1 |
| 20260502212011 | 9 | 167 | 0.0 | 3.2 | 0.00 | 0.00 | 0.00 | 98 | 1010.2 |
| 20260502211533 | 10 | 167 | 0.0 | 3.2 | 0.00 | 0.00 | 0.00 | 98 | 1010.3 |
| 20260502211007 | 10 | 154 | 0.0 | 6.4 | 0.00 | 0.00 | 0.00 | 98 | 1010.3 |
| 20260502210511 | 10 | 154 | 1.6 | 6.4 | 0.00 | 0.00 | 0.00 | 98 | 1010.2 |
| 20260502210023 | 10 | 169 | 1.6 | 6.4 | 0.00 | 0.00 | 0.00 | 98 | 1010.1 |
| 20260502210002 | 10 | 170 | 3.2 | 8.0 | 0.00 | 0.00 | 0.00 | 98 | 1010.6 |
| 20260502205513 | 10 | 172 | 1.6 | 8.0 | 0.00 | 0.00 | 0.00 | 98 | 1010.2 |
| 20260502205009 | 10 | 261 | 1.6 | 8.0 | 0.00 | 0.00 | 0.00 | 98 | 1010.2 |
| 20260502204530 | 10 | 212 | 3.2 | 8.0 | 0.00 | 0.00 | 0.00 | 98 | 1010.1 |
| 20260502204008 | 10 | 169 | 1.6 | 6.4 | 0.00 | 0.00 | 0.00 | 98 | 1010.1 |
| 20260502203510 | 10 | 236 | 0.0 | 4.8 | 0.00 | 0.00 | 0.00 | 98 | 1010.0 |
| 20260502203041 | 10 | 236 | 0.0 | 4.8 | 0.00 | 0.00 | 0.00 | 98 | 1010.1 |
| 20260502202506 | 10 | 236 | 1.6 | 4.8 | 0.00 | 0.00 | 0.00 | 98 | 1010.2 |
| 20260502202010 | 10 | 236 | 0.0 | 4.8 | 0.00 | 0.00 | 0.00 | 98 | 1010.2 |
| 20260502201527 | 10 | 236 | 1.6 | 4.8 | 0.00 | 0.00 | 0.00 | 98 | 1010.3 |
| 20260502201011 | 10 | 236 | 0.0 | 4.8 | 0.00 | 0.00 | 0.00 | 98 | 1010.4 |
| 20260502200510 | 10 | 236 | 0.0 | 4.8 | 0.00 | 0.00 | 0.00 | 98 | 1010.5 |
| 20260502200028 | 10 | 280 | 0.0 | 3.2 | 0.00 | 0.00 | 0.00 | 98 | 1010.5 |
| 20260502200003 | 10 | 276 | 0.0 | 3.2 | 0.00 | 0.00 | 0.00 | 99 | 1011.1 |
| 20260502195508 | 10 | 281 | 0.0 | 3.2 | 0.00 | 0.00 | 0.00 | 98 | 1010.5 |
| 20260502195008 | 10 | 280 | 0.0 | 4.8 | 0.00 | 0.00 | 0.00 | 98 | 1010.8 |
| 20260502194527 | 10 | 280 | 0.0 | 4.8 | 0.00 | 0.00 | 0.00 | 98 | 1010.7 |
| 20260502194009 | 10 | 281 | 1.6 | 8.0 | 0.00 | 0.00 | 0.00 | 98 | 1010.7 |
| 20260502193509 | 10 | 281 | 3.2 | 8.0 | 0.00 | 0.00 | 0.00 | 98 | 1010.7 |
| 20260502193028 | 10 | 226 | 1.6 | 8.0 | 0.00 | 0.00 | 0.00 | 98 | 1010.8 |
| 20260502192505 | 10 | 210 | 0.0 | 8.0 | 0.00 | 0.00 | 0.00 | 98 | 1010.7 |
| 20260502192003 | 10 | 217 | 3.2 | 8.0 | 0.00 | 0.00 | 0.00 | 98 | 1010.9 |
| 20260502191511 | 10 | 203 | 0.0 | 4.8 | 0.00 | 0.00 | 0.00 | 98 | 1010.9 |
| 20260502191004 | 10 | 203 | 0.0 | 8.0 | 0.00 | 0.00 | 0.00 | 98 | 1010.9 |
| 20260502190507 | 10 | 208 | 3.2 | 11.3 | 0.00 | 0.00 | 0.00 | 97 | 1010.9 |
| 20260502190020 | 10 | 219 | 1.6 | 11.3 | 0.00 | 0.00 | 0.00 | 97 | 1011.1 |
| 20260502190002 | 10 | 218 | 1.6 | 11.3 | 0.00 | 0.00 | 0.00 | 98 | 1011.7 |
| 20260502185504 | 10 | 181 | 1.6 | 6.4 | 0.00 | 0.00 | 0.00 | 97 | 1011.2 |
| 20260502185008 | 10 | 237 | 1.6 | 8.0 | 0.00 | 0.00 | 0.00 | 97 | 1011.3 |
| 20260502184523 | 10 | 220 | 3.2 | 11.3 | 0.00 | 0.00 | 0.00 | 97 | 1011.3 |
| 20260502184009 | 10 | 226 | 4.8 | 11.3 | 0.00 | 0.00 | 0.00 | 97 | 1011.3 |
| 20260502183503 | 10 | 210 | 3.2 | 8.0 | 0.00 | 0.00 | 0.00 | 97 | 1011.3 |
| 20260502183008 | 10 | 241 | 1.6 | 8.0 | 0.00 | 0.00 | 0.00 | 97 | 1011.4 |
| 20260502182506 | 10 | 175 | 0.0 | 8.0 | 0.00 | 0.00 | 0.00 | 97 | 1011.3 |
| 20260502182003 | 10 | 181 | 1.6 | 11.3 | 0.00 | 0.00 | 0.00 | 97 | 1011.3 |
| 20260502181509 | 10 | 235 | 0.0 | 11.3 | 0.00 | 0.00 | 0.00 | 97 | 1011.4 |
| 20260502181003 | 10 | 150 | 1.6 | 6.4 | 0.00 | 0.00 | 0.00 | 97 | 1011.4 |
| 20260502180503 | 10 | 203 | 0.0 | 9.7 | 0.00 | 0.00 | 0.00 | 97 | 1011.5 |
| 20260502170507 | 10 | 266 | 1.6 | 11.3 | 0.00 | 0.00 | 0.00 | 96 | 1011.6 |
| 20260502164010 | 10 | 213 | 0.0 | 11.3 | 0.00 | 0.00 | 0.00 | 96 | 1011.5 |
| 20260502163504 | 10 | 259 | 6.4 | 11.3 | 0.00 | 0.00 | 0.00 | 96 | 1011.6 |
| 20260502163032 | 10 | 203 | 3.2 | 11.3 | 0.00 | 0.00 | 0.00 | 96 | 1011.6 |
| 20260502162505 | 10 | 243 | 4.8 | 11.3 | 0.00 | 0.00 | 0.00 | 96 | 1011.7 |
| 20260502162011 | 10 | 245 | 0.0 | 11.3 | 0.00 | 0.00 | 0.00 | 96 | 1011.7 |
| 20260502161526 | 10 | 215 | 4.8 | 11.3 | 0.00 | 0.00 | 0.00 | 95 | 1011.7 |
| 20260502161006 | 10 | 237 | 1.6 | 9.7 | 0.00 | 0.00 | 0.00 | 95 | 1011.6 |
| 20260502160511 | 10 | 281 | 6.4 | 11.3 | 0.00 | 0.00 | 0.00 | 95 | 1011.6 |
| 20260502152008 | 10 | 246 | 6.4 | 17.7 | 0.00 | 0.00 | 0.00 | 95 | 1012.0 |
| 20260502151521 | 10 | 257 | 4.8 | 17.7 | 0.00 | 0.00 | 0.00 | 94 | 1012.1 |
| 20260502151007 | 10 | 206 | 4.8 | 17.7 | 0.00 | 0.00 | 0.00 | 94 | 1012.1 |
| 20260502150509 | 10 | 206 | 8.0 | 14.5 | 0.00 | 0.00 | 0.00 | 94 | 1012.1 |
| 20260502130507 | 11 | 207 | 3.2 | 9.7 | 0.00 | 0.00 | 0.00 | 93 | 1012.1 |
| 20260502123507 | 10 | 292 | 3.2 | 11.3 | 0.00 | 0.00 | 0.00 | 95 | 1012.5 |
| 20260502123031 | 10 | 267 | 3.2 | 9.7 | 0.00 | 0.00 | 0.00 | 95 | 1012.4 |
| 20260502122506 | 10 | 223 | 4.8 | 11.3 | 0.00 | 0.00 | 0.00 | 95 | 1012.4 |
| 20260502122011 | 10 | 258 | 4.8 | 14.5 | 0.00 | 0.00 | 0.00 | 95 | 1012.5 |
| 20260502121527 | 10 | 225 | 4.8 | 14.5 | 0.00 | 0.00 | 0.00 | 96 | 1012.5 |
| 20260502121007 | 10 | 207 | 3.2 | 11.3 | 0.00 | 0.00 | 0.00 | 96 | 1012.6 |
| 20260502120514 | 10 | 294 | 1.6 | 11.3 | 0.00 | 0.00 | 0.00 | 96 | 1012.5 |
| 20260502115508 | 9 | 318 | 1.6 | 12.9 | 0.00 | 0.00 | 0.00 | 96 | 1012.5 |
| 20260502115008 | 9 | 283 | 3.2 | 12.9 | 0.00 | 0.00 | 0.00 | 97 | 1012.4 |
| 20260502114517 | 9 | 321 | 3.2 | 11.3 | 0.00 | 0.00 | 0.00 | 97 | 1012.4 |
| 20260502114006 | 9 | 193 | 6.4 | 11.3 | 0.00 | 0.00 | 0.00 | 97 | 1012.3 |
| 20260502113508 | 9 | 253 | 3.2 | 12.9 | 0.00 | 0.00 | 0.00 | 97 | 1012.2 |
| 20260502113029 | 9 | 234 | 4.8 | 12.9 | 0.00 | 0.00 | 0.00 | 97 | 1012.1 |
| 20260502112507 | 9 | 178 | 3.2 | 11.3 | 0.00 | 0.00 | 0.00 | 97 | 1012.2 |
| 20260502112007 | 9 | 228 | 3.2 | 14.5 | 0.00 | 0.00 | 0.00 | 97 | 1012.2 |
| 20260502111524 | 9 | 251 | 4.8 | 14.5 | 0.00 | 0.00 | 0.00 | 97 | 1012.2 |
| 20260502111009 | 8 | 217 | 3.2 | 14.5 | 0.00 | 0.00 | 0.00 | 98 | 1012.3 |
| 20260502110510 | 8 | 243 | 8.0 | 14.5 | 0.00 | 0.00 | 0.00 | 98 | 1012.1 |
| 20260502110028 | 8 | 214 | 4.8 | 14.5 | 0.00 | 0.00 | 0.00 | 97 | 1012.1 |
| 20260502110003 | 8 | 213 | 4.8 | 16.1 | 0.00 | 0.00 | 0.00 | 98 | 1012.7 |
| 20260502105509 | 8 | 223 | 6.4 | 14.5 | 0.00 | 0.00 | 0.00 | 97 | 1012.0 |
| 20260502105005 | 8 | 226 | 3.2 | 16.1 | 0.00 | 0.00 | 0.00 | 97 | 1012.0 |
| 20260502104518 | 8 | 228 | 3.2 | 16.1 | 0.00 | 0.00 | 0.00 | 97 | 1012.0 |
| 20260502104007 | 8 | 256 | 3.2 | 12.9 | 0.00 | 0.00 | 0.00 | 97 | 1011.9 |
| 20260502103507 | 8 | 245 | 3.2 | 14.5 | 0.00 | 0.00 | 0.00 | 97 | 1012.0 |
| 20260502103023 | 8 | 262 | 3.2 | 14.5 | 0.00 | 0.00 | 0.00 | 97 | 1012.1 |
| 20260502102504 | 8 | 251 | 4.8 | 17.7 | 0.00 | 0.00 | 0.00 | 97 | 1012.0 |
| 20260502102004 | 8 | 275 | 1.6 | 17.7 | 0.00 | 0.00 | 0.00 | 97 | 1012.2 |
| 20260502101509 | 8 | 255 | 6.4 | 12.9 | 0.00 | 0.00 | 0.00 | 97 | 1012.2 |
| 20260502101003 | 8 | 273 | 3.2 | 14.5 | 0.00 | 0.00 | 0.00 | 97 | 1012.0 |
| 20260502100503 | 8 | 236 | 6.4 | 14.5 | 0.00 | 0.00 | 0.00 | 97 | 1012.1 |
| 20260502091508 | 8 | 252 | 3.2 | 12.9 | 0.00 | 0.00 | 0.00 | 95 | 1011.8 |
| 20260502091005 | 8 | 247 | 4.8 | 12.9 | 0.00 | 0.00 | 0.00 | 95 | 1011.9 |
| 20260502090503 | 8 | 231 | 3.2 | 14.5 | 0.00 | 0.00 | 0.00 | 95 | 1012.0 |
| 20260502071512 | 8 | 265 | 4.8 | 17.7 | 0.00 | 0.00 | 0.00 | 93 | 1012.1 |
| 20260502071003 | 8 | 278 | 4.8 | 14.5 | 0.00 | 0.00 | 0.00 | 93 | 1012.0 |
| 20260502070505 | 8 | 322 | 4.8 | 17.7 | 0.00 | 0.00 | 0.00 | 93 | 1011.8 |
| 20260502070016 | 8 | 243 | 6.4 | 20.9 | 0.00 | 0.00 | 0.00 | 92 | 1012.0 |
| 20260502070001 | 8 | 241 | 6.4 | 19.3 | 0.00 | 0.00 | 0.00 | 93 | 1012.5 |
| 20260502065504 | 8 | 288 | 6.4 | 20.9 | 0.00 | 0.00 | 0.00 | 92 | 1012.1 |
| 20260502065003 | 8 | 293 | 6.4 | 17.7 | 0.00 | 0.00 | 0.00 | 92 | 1012.3 |
| 20260502064510 | 8 | 257 | 4.8 | 17.7 | 0.00 | 0.00 | 0.00 | 92 | 1012.3 |
| 20260502064004 | 8 | 258 | 6.4 | 19.3 | 0.00 | 0.00 | 0.00 | 92 | 1012.3 |
| 20260502063503 | 8 | 248 | 8.0 | 19.3 | 0.00 | 0.00 | 0.00 | 92 | 1012.4 |
| 20260502063008 | 8 | 250 | 4.8 | 16.1 | 0.00 | 0.00 | 0.00 | 92 | 1012.4 |
| 20260502062503 | 8 | 267 | 4.8 | 17.7 | 0.00 | 0.00 | 0.00 | 91 | 1012.4 |
| 20260502062002 | 8 | 243 | 9.7 | 17.7 | 0.00 | 0.00 | 0.00 | 91 | 1012.3 |
| 20260502061510 | 8 | 221 | 3.2 | 16.1 | 0.00 | 0.00 | 0.00 | 91 | 1012.3 |
| 20260502061003 | 8 | 216 | 3.2 | 16.1 | 0.00 | 0.00 | 0.00 | 91 | 1012.3 |
| 20260502060502 | 8 | 231 | 4.8 | 17.7 | 0.00 | 0.00 | 0.00 | 92 | 1012.3 |
| 20260502060013 | 8 | 251 | 6.4 | 17.7 | 0.00 | 0.00 | 0.00 | 91 | 1012.3 |
| 20260502060002 | 8 | 247 | 8.0 | 17.7 | 0.00 | 0.00 | 0.00 | 92 | 1012.9 |
| 20260502055503 | 8 | 245 | 4.8 | 19.3 | 0.00 | 0.00 | 0.00 | 92 | 1012.3 |
| 20260502055006 | 8 | 253 | 6.4 | 19.3 | 0.00 | 0.00 | 0.00 | 92 | 1012.4 |
| 20260502054510 | 8 | 279 | 6.4 | 17.7 | 0.00 | 0.00 | 0.00 | 92 | 1012.4 |
| 20260502054002 | 8 | 249 | 6.4 | 16.1 | 0.00 | 0.00 | 0.00 | 92 | 1012.4 |
| 20260502053502 | 8 | 271 | 4.8 | 17.7 | 0.00 | 0.00 | 0.00 | 92 | 1012.5 |
| 20260502053011 | 8 | 269 | 4.8 | 17.7 | 0.00 | 0.00 | 0.00 | 92 | 1012.5 |
| 20260502052506 | 8 | 252 | 4.8 | 12.9 | 0.00 | 0.00 | 0.00 | 92 | 1012.5 |
| 20260502052005 | 8 | 245 | 1.6 | 11.3 | 0.00 | 0.00 | 0.00 | 92 | 1012.4 |
| 20260502051514 | 8 | 274 | 4.8 | 11.3 | 0.00 | 0.00 | 0.00 | 92 | 1012.5 |
| 20260502051003 | 8 | 281 | 4.8 | 11.3 | 0.00 | 0.00 | 0.00 | 93 | 1012.6 |
| 20260502050503 | 8 | 245 | 3.2 | 12.9 | 0.00 | 0.00 | 0.00 | 92 | 1012.6 |
| 20260502050014 | 8 | 259 | 3.2 | 14.5 | 0.00 | 0.00 | 0.00 | 93 | 1012.7 |
| 20260502050002 | 8 | 256 | 3.2 | 14.5 | 0.00 | 0.00 | 0.00 | 93 | 1013.2 |
| 20260502045503 | 8 | 252 | 4.8 | 16.1 | 0.00 | 0.00 | 0.00 | 93 | 1012.7 |
| 20260502045004 | 8 | 209 | 6.4 | 16.1 | 0.00 | 0.00 | 0.00 | 93 | 1012.9 |
| 20260502044513 | 8 | 247 | 4.8 | 12.9 | 0.00 | 0.00 | 0.00 | 93 | 1012.9 |
| 20260502044004 | 8 | 243 | 6.4 | 12.9 | 0.00 | 0.00 | 0.00 | 93 | 1013.0 |
| 20260502043503 | 8 | 256 | 4.8 | 14.5 | 0.00 | 0.00 | 0.00 | 92 | 1013.0 |
| 20260502043011 | 8 | 224 | 4.8 | 16.1 | 0.00 | 0.00 | 0.00 | 92 | 1013.0 |
| 20260502042503 | 8 | 219 | 6.4 | 16.1 | 0.00 | 0.00 | 0.00 | 92 | 1012.9 |
| 20260502042007 | 8 | 229 | 3.2 | 11.3 | 0.00 | 0.00 | 0.00 | 92 | 1012.9 |
| 20260502041512 | 8 | 229 | 3.2 | 12.9 | 0.00 | 0.00 | 0.00 | 92 | 1012.9 |
| 20260502041002 | 8 | 205 | 4.8 | 12.9 | 0.00 | 0.00 | 0.00 | 92 | 1012.8 |
| 20260502040507 | 8 | 230 | 3.2 | 14.5 | 0.00 | 0.00 | 0.00 | 92 | 1012.8 |
| 20260502040016 | 8 | 234 | 6.4 | 14.5 | 0.00 | 0.00 | 0.00 | 92 | 1012.8 |
| 20260502040007 | 8 | 236 | 6.4 | 16.1 | 0.00 | 0.00 | 0.00 | 92 | 1013.5 |
| 20260502035505 | 8 | 234 | 4.8 | 14.5 | 0.00 | 0.00 | 0.00 | 92 | 1012.8 |
| 20260502035004 | 8 | 238 | 4.8 | 14.5 | 0.00 | 0.00 | 0.00 | 92 | 1012.9 |
| 20260502034515 | 8 | 271 | 6.4 | 14.5 | 0.00 | 0.00 | 0.00 | 91 | 1012.9 |
| 20260502034502 | 8 | 267 | 6.4 | 14.5 | 0.00 | 0.00 | 0.00 | 92 | 1013.6 |
| 20260502034003 | 8 | 230 | 3.2 | 17.7 | 0.00 | 0.00 | 0.00 | 91 | 1012.9 |
| 20260502033508 | 8 | 255 | 4.8 | 17.7 | 0.00 | 0.00 | 0.00 | 91 | 1013.0 |
| 20260502033014 | 8 | 258 | 8.0 | 17.7 | 0.00 | 0.00 | 0.00 | 91 | 1013.1 |
| 20260502033000 | 8 | 255 | 8.0 | 14.5 | 0.00 | 0.00 | 0.00 | 92 | 1013.7 |
| 20260502032507 | 8 | 205 | 6.4 | 17.7 | 0.00 | 0.00 | 0.00 | 91 | 1013.0 |
| 20260502032006 | 8 | 259 | 6.4 | 17.7 | 0.00 | 0.00 | 0.00 | 91 | 1013.0 |
| 20260502031516 | 8 | 255 | 6.4 | 17.7 | 0.00 | 0.00 | 0.00 | 91 | 1013.0 |
| 20260502031004 | 8 | 254 | 3.2 | 14.5 | 0.00 | 0.00 | 0.00 | 91 | 1013.0 |
| 20260502030503 | 8 | 245 | 4.8 | 14.5 | 0.00 | 0.00 | 0.00 | 91 | 1013.0 |
| 20260502030012 | 8 | 281 | 3.2 | 11.3 | 0.00 | 0.00 | 0.00 | 91 | 1013.1 |
| 20260502030004 | 8 | 277 | 3.2 | 12.9 | 0.00 | 0.00 | 0.00 | 91 | 1013.7 |
| 20260502025508 | 8 | 237 | 3.2 | 9.7 | 0.00 | 0.00 | 0.00 | 90 | 1013.0 |
| 20260502025006 | 8 | 252 | 3.2 | 8.0 | 0.00 | 0.00 | 0.00 | 90 | 1012.8 |
| 20260502024517 | 8 | 233 | 1.6 | 9.7 | 0.00 | 0.00 | 0.00 | 90 | 1012.8 |
| 20260502024004 | 8 | 241 | 3.2 | 12.9 | 0.00 | 0.00 | 0.00 | 90 | 1012.8 |
| 20260502023505 | 8 | 238 | 4.8 | 12.9 | 0.00 | 0.00 | 0.00 | 90 | 1012.8 |
| 20260502023018 | 8 | 251 | 3.2 | 11.3 | 0.00 | 0.00 | 0.00 | 90 | 1012.8 |
| 20260502022506 | 8 | 242 | 3.2 | 11.3 | 0.00 | 0.00 | 0.00 | 90 | 1012.7 |
| 20260502022005 | 8 | 245 | 3.2 | 11.3 | 0.00 | 0.00 | 0.00 | 90 | 1012.8 |
| 20260502021518 | 8 | 239 | 1.6 | 11.3 | 0.00 | 0.00 | 0.00 | 90 | 1012.7 |
| 20260502021007 | 8 | 229 | 3.2 | 8.0 | 0.00 | 0.00 | 0.00 | 90 | 1012.8 |
| 20260502020507 | 9 | 226 | 1.6 | 8.0 | 0.00 | 0.00 | 0.00 | 90 | 1012.8 |
| 20260502020016 | 9 | 252 | 3.2 | 9.7 | 0.00 | 0.00 | 0.00 | 89 | 1012.7 |
| 20260502020003 | 9 | 249 | 3.2 | 11.3 | 0.00 | 0.00 | 0.00 | 90 | 1013.3 |
| 20260502015509 | 9 | 250 | 0.0 | 9.7 | 0.00 | 0.00 | 0.00 | 89 | 1012.7 |
| 20260502015004 | 9 | 266 | 0.0 | 9.7 | 0.00 | 0.00 | 0.00 | 89 | 1012.6 |
| 20260502014511 | 9 | 247 | 3.2 | 9.7 | 0.00 | 0.00 | 0.00 | 89 | 1012.7 |
| 20260502014505 | 9 | 244 | 3.2 | 11.3 | 0.00 | 0.00 | 0.00 | 90 | 1013.3 |
| 20260502014004 | 9 | 257 | 1.6 | 11.3 | 0.00 | 0.00 | 0.00 | 89 | 1012.7 |
| 20260502013504 | 9 | 281 | 1.6 | 16.1 | 0.00 | 0.00 | 0.00 | 89 | 1012.6 |
| 20260502013016 | 9 | 243 | 4.8 | 16.1 | 0.00 | 0.00 | 0.00 | 89 | 1012.7 |
| 20260502013001 | 9 | 256 | 4.8 | 17.7 | 0.00 | 0.00 | 0.00 | 89 | 1013.3 |
| 20260502012505 | 9 | 223 | 4.8 | 12.9 | 0.00 | 0.00 | 0.00 | 89 | 1012.7 |
| 20260502012010 | 9 | 265 | 3.2 | 12.9 | 0.00 | 0.00 | 0.00 | 89 | 1012.8 |
| 20260502011519 | 9 | 248 | 4.8 | 12.9 | 0.00 | 0.00 | 0.00 | 89 | 1012.8 |
| 20260502011502 | 9 | 245 | 4.8 | 12.9 | 0.00 | 0.00 | 0.00 | 89 | 1013.4 |
| 20260502011007 | 9 | 250 | 3.2 | 14.5 | 0.00 | 0.00 | 0.00 | 88 | 1012.8 |
| 20260502010513 | 9 | 266 | 4.8 | 14.5 | 0.00 | 0.00 | 0.00 | 88 | 1012.7 |
| 20260502010025 | 9 | 259 | 4.8 | 12.9 | 0.00 | 0.00 | 0.00 | 88 | 1012.8 |
| 20260502010007 | 9 | 256 | 6.4 | 14.5 | 0.00 | 0.00 | 0.00 | 89 | 1013.4 |
| 20260502005506 | 9 | 240 | 4.8 | 12.9 | 0.00 | 0.00 | 0.00 | 88 | 1012.7 |
| 20260502005010 | 9 | 286 | 3.2 | 11.3 | 0.00 | 0.00 | 0.00 | 88 | 1012.6 |
| 20260502004514 | 9 | 257 | 4.8 | 11.3 | 0.00 | 0.00 | 0.00 | 88 | 1012.5 |
| 20260502004006 | 9 | 277 | 4.8 | 11.3 | 0.00 | 0.00 | 0.00 | 87 | 1012.5 |
| 20260502003503 | 10 | 281 | 3.2 | 17.7 | 0.00 | 0.00 | 0.00 | 87 | 1012.4 |
| 20260502003016 | 10 | 276 | 6.4 | 17.7 | 0.00 | 0.00 | 0.00 | 87 | 1012.3 |